Hourly Data Report for May 25, 2004

SHERBROOKE A
QUEBEC

45°26'00.000" N
71°41'00.000" W
241.40 m
7028124
71610
YSC

Download Data

Hourly Data (May 2004)
Hourly Data Report for May 25, 2004
TIME
LST
Temp Definition
°C
Dew Point Definition
°C
Rel Hum Definition
%
Precip. Amount Definition
mm

Wind Dir Definition
10's deg

Wind Spd Definition
km/h
Visibility Definition
km
Stn Press Definition
kPa
Hmdx Definition


Wind Chill Definition


Weather Definition


00:00 10.0 8.6 91     0 15.0 97.88      
01:00 9.8 8.6 92     0 3.2 97.99     Rain
02:00 9.6 8.5 93   11 15 5.6 97.99     Rain
03:00 9.6 8.7 94   9 9 3.4 98.06     Rain
04:00 9.5 8.5 93   9 11 12.9 98.06      
05:00 9.4 8.5 94   8 7 3.1 98.12     Drizzle
06:00 9.5 8.7 95   11 9 4.0 98.21      
07:00 9.8 8.9 94   15 9 4.8 98.31     Drizzle, Fog
08:00 10.0 9.1 94   15 6 4.8 98.38     Drizzle, Fog
09:00 10.4 9.3 93   16 7 4.0 98.46     Rain, Fog
10:00 11.4 10.3 93   13 13 12.9 98.43     Drizzle
11:00 11.8 10.3 91   17 7 8.0 98.47     Drizzle, Fog
12:00 12.3 11.1 92   26 9 16.1 98.45     Cloudy
13:00 12.4 11.0 91   29 4 19.3 98.41     Cloudy
14:00 12.0 10.7 92   27 7 19.3 98.45     Drizzle
15:00 12.1 10.9 92   30 6 4.0 98.49     Drizzle, Fog
16:00 12.0 10.9 93   13 9 12.9 98.47     Drizzle
17:00 11.6 9.2 85   12 11 15.0 98.49      
18:00 11.3 8.5 83   11 6 15.0 98.48      
19:00 11.0 7.9 81   11 7 15.0 98.44      
20:00 10.6 7.5 81   13 13 15.0 98.47      
21:00 10.3 7.1 81   14 15 15.0 98.42      
22:00 9.9 7.1 83   12 15 15.0 98.40      
23:00 9.8 6.8 82   15 9 15.0 98.37      

Notes on Data Quality.

Legend

  • E = Estimated
  • M = Missing
  • NA = Not Available*
  • [empty] = Indicates an unobserved value
Date modified: